Weather History for KSLN - July, 2014

Change the Weather History Date:

Friday, July 25, 2014

  Actual Average Record
Temperature  
Mean Temperature 93 °F 81 °F  
Max Temperature 107 °F 93 °F 110 °F (1936)
Min Temperature 78 °F 70 °F 50 °F (1911)
Degree Days  
Heating Degree Days 0 0  
Month to date heating degree days 0 0  
Since 1 June heating degree days 1 7  
Since 1 July heating degree days 0 0  
Cooling Degree Days 28 16  
Month to date cooling degree days 363 399  
Year to date cooling degree days 952 852  
Since 1 June cooling degree days 720 724  
Growing Degree Days 42 (Base 50)    
Moisture  
Dew Point 66 °F    
Average Humidity 50    
Maximum Humidity 74    
Minimum Humidity 25    
Precipitation  
Precipitation 0.00 in 0.12 in 4.30 in (1990)
Month to date precipitation 0.71 3.54  
Year to date precipitation 16.29 19.64  
Sea Level Pressure  
Sea Level Pressure 29.75 in    
Wind  
Wind Speed 18 mph (SSW)    
Max Wind Speed 29 mph    
Max Gust Speed 34 mph    
Visibility 10 miles    
Events      
T = Trace of Precipitation, MM = Missing Value Source: NWS Daily Summary

Daily Weather History Graph

Daily Weather History Graph

Search for Another Location

Airport or City:

Trip Planner

Search our weather history database for the weather conditions in past years. The results will help you decide how hot, cold, wet, or windy it might be!

Date:

Astronomy

Jul. 25, 2014 Rise Set
Actual Time 6:25 AM CDT 8:47 PM CDT
Civil Twilight 5:55 AM CDT 9:18 PM CDT
Nautical Twilight 5:18 AM CDT 9:55 PM CDT
Astronomical Twilight 4:36 AM CDT 10:36 PM CDT
Moon 5:25 AM CDT (7/25) 7:46 PM CDT (7/25)
Length of Visible Light 15h 22m
Length of Day
14h 22m
Waning Crescent, 1% of the Moon is Illuminated
Jul 25
Waning Crescent
Jul 26
New
Aug 3
First Quarter
Aug 10
Full
Aug 17
Last Quarter

Hourly Weather History & Observations

Time (CDT) Temp. Heat Index Dew Point Humidity Pressure Visibility Wind Dir Wind Speed Gust Speed Precip Events Conditions
12:53 AM 82.0 °F 84.9 °F 68.0 °F 62% 29.85 in 10.0 mi South 18.4 mph 26.5 mph N/A   Clear
1:53 AM 81.0 °F 84.1 °F 69.1 °F 67% 29.83 in 10.0 mi South 18.4 mph 27.6 mph N/A   Clear
2:53 AM 80.1 °F 83.2 °F 70.0 °F 71% 29.82 in 10.0 mi South 15.0 mph 24.2 mph N/A   Clear
3:53 AM 80.1 °F 83.2 °F 70.0 °F 71% 29.82 in 10.0 mi South 17.3 mph 25.3 mph N/A   Clear
4:53 AM 79.0 °F - 69.1 °F 72% 29.80 in 10.0 mi South 18.4 mph - N/A   Clear
5:53 AM 79.0 °F - 69.1 °F 72% 29.79 in 10.0 mi SSW 19.6 mph 27.6 mph N/A   Clear
6:53 AM 78.1 °F - 68.0 °F 71% 29.79 in 10.0 mi South 16.1 mph - N/A   Clear
7:53 AM 80.1 °F 82.7 °F 68.0 °F 67% 29.80 in 10.0 mi SSW 19.6 mph 28.8 mph N/A   Clear
8:53 AM 86.0 °F 89.4 °F 68.0 °F 55% 29.79 in 10.0 mi SSW 25.3 mph 29.9 mph N/A   Clear
9:53 AM 88.0 °F 90.7 °F 66.9 °F 49% 29.77 in 10.0 mi SSW 25.3 mph 32.2 mph N/A   Clear
10:53 AM 95.0 °F 99.0 °F 66.9 °F 40% 29.75 in 10.0 mi SW 23.0 mph 29.9 mph N/A   Clear
11:53 AM 96.8 °F 100.7 °F 66.2 °F 37% 29.79 in 10.0 mi SW 20.7 mph - N/A   Clear
12:53 PM 100.9 °F 104.6 °F 64.9 °F 31% 29.73 in 10.0 mi SW 27.6 mph 33.4 mph N/A   Clear
1:53 PM 102.9 °F 106.1 °F 64.0 °F 28% 29.72 in 10.0 mi WSW 23.0 mph 28.8 mph N/A   Clear
2:53 PM 106.0 °F 109.3 °F 63.0 °F 25% 29.70 in 10.0 mi SW 18.4 mph 31.1 mph N/A   Clear
3:53 PM 105.1 °F 107.8 °F 63.0 °F 25% 29.70 in 10.0 mi WSW 19.6 mph 26.5 mph N/A   Clear
4:53 PM 105.1 °F 108.5 °F 64.0 °F 26% 29.69 in 10.0 mi SW 17.3 mph - N/A   Clear
5:53 PM 106.0 °F 110.1 °F 64.9 °F 26% 29.68 in 10.0 mi SSW 23.0 mph 28.8 mph N/A   Clear
6:53 PM 104.0 °F 107.4 °F 64.0 °F 27% 29.68 in 10.0 mi South 17.3 mph 25.3 mph N/A   Clear
7:53 PM 100.9 °F 104.0 °F 64.0 °F 30% 29.68 in 10.0 mi South 17.3 mph 25.3 mph N/A   Clear
8:53 PM 95.0 °F 95.6 °F 62.1 °F 33% 29.69 in 10.0 mi South 6.9 mph - N/A   Clear
9:53 PM 89.1 °F 89.3 °F 62.1 °F 40% 29.71 in 10.0 mi South 6.9 mph - N/A   Clear
10:53 PM 90.0 °F 89.7 °F 60.1 °F 37% 29.73 in 10.0 mi South 9.2 mph - N/A   Clear
11:53 PM 89.1 °F 88.2 °F 59.0 °F 36% 29.74 in 10.0 mi South 16.1 mph - N/A   Clear